Weather History for KCVN - October, 2013

Change the Weather History Date:

Thursday, October 3, 2013

  Actual Average Record
Temperature  
Mean Temperature 65 °F -  
Max Temperature 84 °F 79 °F 93 °F (1967)
Min Temperature 46 °F 49 °F 34 °F (1961)
Growing Degree Days 15 (Base 50)    
Moisture  
Dew Point 37 °F    
Average Humidity 36    
Maximum Humidity 62    
Minimum Humidity 19    
Precipitation  
Precipitation 0.00 in - - ()
Sea Level Pressure  
Sea Level Pressure 29.90 in    
Wind  
Wind Speed 10 mph (WSW)    
Max Wind Speed 25 mph    
Max Gust Speed 31 mph    
Visibility 10 miles    
Events      
Averages and records for this station are not official NWS values.
T = Trace of Precipitation, MM = Missing Value Source: NWS Daily Summary

Daily Weather History Graph

Daily Weather History Graph

Search for Another Location

Airport or City:

Trip Planner

Search our weather history database for the weather conditions in past years. The results will help you decide how hot, cold, wet, or windy it might be!

Date:

Astronomy

Oct. 03, 2013 Rise Set
Actual Time 6:48 AM MDT 6:33 PM MDT
Civil Twilight 6:23 AM MDT 6:58 PM MDT
Nautical Twilight 5:54 AM MDT 7:27 PM MDT
Astronomical Twilight 5:25 AM MDT 7:56 PM MDT
Moon 5:26 AM MDT (10/3) 5:42 PM MDT (10/3)
Length of Visible Light 12h 34m
Length of Day
11h 44m
Waning Crescent, 2% of the Moon is Illuminated
Oct 3
Waning Crescent
Oct 4
New
Oct 11
First Quarter
Oct 18
Full
Oct 26
Last Quarter

Hourly Weather History & Observations

Time (MDT) Temp. Windchill Dew Point Humidity Pressure Visibility Wind Dir Wind Speed Gust Speed Precip Events Conditions
12:15 AM 55.4 °F - 33.8 °F 44% 29.94 in 10.0 mi West 8.1 mph - N/A   Clear
12:35 AM 55.4 °F - 33.8 °F 44% 29.93 in 10.0 mi West 6.9 mph - N/A   Clear
12:55 AM 55.4 °F - 33.8 °F 44% 29.93 in 10.0 mi West 8.1 mph - N/A   Clear
1:15 AM 53.6 °F - 35.6 °F 51% 29.93 in 10.0 mi West 4.6 mph - N/A   Clear
1:35 AM 53.6 °F - 33.8 °F 47% 29.94 in 10.0 mi WSW 4.6 mph - N/A   Clear
1:55 AM 51.8 °F - 33.8 °F 50% 29.93 in 10.0 mi Calm Calm - N/A   Clear
2:15 AM 51.8 °F - 35.6 °F 54% 29.93 in 10.0 mi WNW 5.8 mph - N/A   Clear
2:35 AM 53.6 °F - 33.8 °F 47% 29.93 in 10.0 mi WNW 5.8 mph - N/A   Clear
2:55 AM 51.8 °F - 33.8 °F 50% 29.92 in 10.0 mi NW 6.9 mph - N/A   Clear
3:15 AM 51.8 °F - 33.8 °F 50% 29.91 in 10.0 mi WNW 6.9 mph - N/A   Clear
3:35 AM 50.0 °F - 33.8 °F 54% 29.92 in 10.0 mi West 6.9 mph - N/A   Clear
3:55 AM 48.2 °F - 33.8 °F 58% 29.92 in 10.0 mi West 3.5 mph - N/A   Clear
4:15 AM 51.8 °F - 33.8 °F 50% 29.92 in 10.0 mi SSE 5.8 mph - N/A   Clear
4:35 AM 51.8 °F - 33.8 °F 50% 29.92 in 10.0 mi South 5.8 mph - N/A   Clear
4:55 AM 46.4 °F 41.9 °F 33.8 °F 62% 29.93 in 10.0 mi South 9.2 mph - N/A   Clear
5:15 AM 46.4 °F 42.4 °F 33.8 °F 62% 29.92 in 10.0 mi WSW 8.1 mph - N/A   Clear
5:35 AM 46.4 °F 42.4 °F 33.8 °F 62% 29.93 in 10.0 mi SW 8.1 mph - N/A   Clear
5:55 AM 48.2 °F - 33.8 °F 58% 29.93 in 10.0 mi West 6.9 mph - N/A   Clear
6:15 AM 48.2 °F - 33.8 °F 58% 29.93 in 10.0 mi West 3.5 mph - N/A   Clear
6:35 AM 48.2 °F - 33.8 °F 58% 29.93 in 10.0 mi WSW 9.2 mph - N/A   Clear
6:55 AM 48.2 °F - 33.8 °F 58% 29.94 in 10.0 mi SW 10.4 mph - N/A   Clear
7:15 AM 50.0 °F - 33.8 °F 54% 29.94 in 10.0 mi WSW 9.2 mph - N/A   Clear
7:35 AM 53.6 °F - 35.6 °F 51% 29.94 in 10.0 mi WSW 12.7 mph - N/A   Clear
7:55 AM 57.2 °F - 35.6 °F 44% 29.94 in 10.0 mi WSW 13.8 mph - N/A   Clear
8:15 AM 60.8 °F - 37.4 °F 42% 29.95 in 10.0 mi SW 10.4 mph - N/A   Clear
8:35 AM 64.4 °F - 35.6 °F 34% 29.95 in 10.0 mi SW 12.7 mph - N/A   Clear
8:55 AM 66.2 °F - 37.4 °F 35% 29.96 in 10.0 mi SW 11.5 mph - N/A   Clear
9:15 AM 69.8 °F - 39.2 °F 33% 29.96 in 10.0 mi SW 13.8 mph - N/A   Clear
9:35 AM 71.6 °F - 39.2 °F 31% 29.96 in 10.0 mi SW 12.7 mph - N/A   Clear
9:55 AM 73.4 °F - 39.2 °F 29% 29.95 in 10.0 mi WSW 17.3 mph - N/A   Clear
10:15 AM 75.2 °F - 39.2 °F 27% 29.95 in 10.0 mi WSW 16.1 mph - N/A   Clear
10:35 AM 75.2 °F - 39.2 °F 27% 29.96 in 10.0 mi WSW 13.8 mph - N/A   Clear
10:55 AM 77.0 °F - 39.2 °F 26% 29.95 in 10.0 mi West 16.1 mph 19.6 mph N/A   Clear
11:15 AM 78.8 °F - 41.0 °F 26% 29.95 in 10.0 mi WSW 13.8 mph - N/A   Clear
11:35 AM 78.8 °F - 39.2 °F 24% 29.93 in 10.0 mi West 15.0 mph - N/A   Clear
11:55 AM 80.6 °F - 39.2 °F 23% 29.93 in 10.0 mi West 15.0 mph - N/A   Clear
12:15 PM 80.6 °F - 39.2 °F 23% 29.92 in 10.0 mi SW 15.0 mph 19.6 mph N/A   Clear
12:35 PM 82.4 °F - 39.2 °F 21% 29.92 in 10.0 mi WSW 18.4 mph 24.2 mph N/A   Clear
12:55 PM 82.4 °F - 39.2 °F 21% 29.91 in 10.0 mi SW 15.0 mph 25.3 mph N/A   Clear
1:15 PM 82.4 °F - 39.2 °F 21% 29.90 in 10.0 mi WSW 18.4 mph 25.3 mph N/A   Clear
1:35 PM 82.4 °F - 39.2 °F 21% 29.89 in 10.0 mi SW 18.4 mph 26.5 mph N/A   Clear
1:55 PM 82.4 °F - 39.2 °F 21% 29.88 in 10.0 mi SW 18.4 mph 27.6 mph N/A   Clear
2:15 PM 84.2 °F - 39.2 °F 20% 29.88 in 10.0 mi SW 19.6 mph 31.1 mph N/A   Clear
2:35 PM 84.2 °F - 39.2 °F 20% 29.87 in 10.0 mi SW 21.9 mph 28.8 mph N/A   Clear
2:55 PM 84.2 °F - 39.2 °F 20% 29.87 in 10.0 mi SW 20.7 mph 26.5 mph N/A   Clear
3:15 PM 84.2 °F - 39.2 °F 20% 29.86 in 10.0 mi WSW 21.9 mph 29.9 mph N/A   Clear
3:35 PM 84.2 °F - 39.2 °F 20% 29.85 in 10.0 mi SW 25.3 mph 29.9 mph N/A   Clear
3:55 PM 84.2 °F - 39.2 °F 20% 29.84 in 10.0 mi SW 25.3 mph 29.9 mph N/A   Clear
4:15 PM 84.2 °F - 37.4 °F 19% 29.84 in 10.0 mi WSW 21.9 mph 31.1 mph N/A   Clear
4:35 PM 84.2 °F - 39.2 °F 20% 29.83 in 10.0 mi SW 15.0 mph 24.2 mph N/A   Clear
4:55 PM 84.2 °F - 39.2 °F 20% 29.83 in 10.0 mi SW 19.6 mph 28.8 mph N/A   Clear
5:15 PM 82.4 °F - 39.2 °F 21% 29.82 in 10.0 mi SW 19.6 mph 24.2 mph N/A   Clear
5:35 PM 82.4 °F - 39.2 °F 21% 29.82 in 10.0 mi SSW 19.6 mph 25.3 mph N/A   Clear
5:55 PM 80.6 °F - 39.2 °F 23% 29.82 in 10.0 mi SSW 17.3 mph 23.0 mph N/A   Clear
6:15 PM 78.8 °F - 39.2 °F 24% 29.82 in 10.0 mi SSW 16.1 mph 20.7 mph N/A   Clear
6:35 PM 77.0 °F - 39.2 °F 26% 29.83 in 10.0 mi SSW 15.0 mph - N/A   Clear
6:55 PM 75.2 °F - 39.2 °F 27% 29.83 in 10.0 mi SSW 10.4 mph - N/A   Clear
7:15 PM 73.4 °F - 39.2 °F 29% 29.83 in 10.0 mi SSW 9.2 mph - N/A   Clear
7:35 PM 71.6 °F - 39.2 °F 31% 29.84 in 10.0 mi SSW 10.4 mph - N/A   Clear
7:55 PM 69.8 °F - 39.2 °F 33% 29.84 in 10.0 mi SSW 10.4 mph - N/A   Clear
8:15 PM 69.8 °F - 39.2 °F 33% 29.84 in 10.0 mi SW 12.7 mph - N/A   Clear
8:35 PM 68.0 °F - 41.0 °F 37% 29.85 in 10.0 mi SW 15.0 mph - N/A   Clear
8:55 PM 66.2 °F - 39.2 °F 37% 29.86 in 10.0 mi SW 12.7 mph - N/A   Clear
9:15 PM 64.4 °F - 39.2 °F 40% 29.86 in 10.0 mi SW 9.2 mph - N/A   Clear
9:35 PM 60.8 °F - 39.2 °F 45% 29.87 in 10.0 mi SW 8.1 mph - N/A   Clear
10:35 PM 55.4 °F - 37.4 °F 51% 29.87 in 10.0 mi SW 10.4 mph - N/A   Clear
10:55 PM 57.2 °F - 33.8 °F 41% 29.87 in 10.0 mi WSW 11.5 mph - N/A   Clear
11:15 PM 59.0 °F - 33.8 °F 39% 29.86 in 10.0 mi WSW 12.7 mph - N/A   Clear
11:35 PM 60.8 °F - 32.0 °F 34% 29.86 in 10.0 mi WSW 12.7 mph - N/A   Clear
11:55 PM 60.8 °F - 30.2 °F 31% 29.86 in 10.0 mi WSW 12.7 mph - N/A   Clear